Location: Poughquag
(41.6090°N, 73.6820°W)
Time: 12:52:06
(UTC-04:00)

Transit 2A Rocket - Pass Details

Date: 07 June 2020
Orbit: 584 x 919 km, 66.7° (Epoch: 06 July)

Event Time Altitude Azimuth Distance (km) Brightness Sun altitude
Rises 19:51:56 0° 165° (SSE) 3,037 7.7 4.9°
Reaches altitude 10° 19:54:47 10° 147° (SSE) 2,190 6.9 4.4°
Maximum altitude 19:58:11 19° 104° (ESE) 1,758 6.3 3.8°
Drops below altitude 10° 20:01:48 10° 62° (ENE) 2,355 7.2 3.3°
Sets 20:05:00 0° 45° (NE) 3,358 8.2 2.7°
